User: anonymous   Login
Location: Arrodets-la-Barthe
(43.0306°N, 0.2829°E)
Time: 02:21:16
(UTC+00:00)
Language:

BlueWalker 3 - Orbit

View from above orbital plane
View from above orbital plane
View from above satellite
View from above satellite

Ground track
Ground track

The orbit data is extracted from the following two-line orbital elements,

1 53807U 22111AL  23034.22929662  .00004150  00000-0  20894-3 0  9996
2 53807  53.2065 325.4356 0013172  11.1748 348.9538 15.19292372 22072
Epoch (UTC): 03 February 2023 05:30:11
Eccentricity: 0.0013172
inclination: 53.2065°
perigee height: 499 km
apogee height: 517 km
right ascension of ascending node: 325.4356°
argument of perigee: 11.1748°
revolutions per day: 15.19292372
mean anomaly at epoch: 348.9538°
orbit number at epoch: 2207

The dashed part of the orbit path shows where the satellite is in the earth's shadow,  

DLR